[[{"header":{"parameterUnit":"m.s-1","parameterCategory":1,"la1":30.2992,"la2":30.254,"lo1":-89.0895,"lo2":-89.0443,"dy":0.0025,"dx":0.0025,"nx":19,"ny":19,"refTime":"2026-03-09T21:00:00:Z","depth":0,"parameterNumber":2,"parameterNumberName":"U-component_of_WINDS"},"data":[0,0,0,-2.1707,-2.171,-2.1843,-2.1844,-2.2007,-2.2008,0,0,0,0,0,0,0,0,0,0,0,-2.1661,-2.1662,-2.1707,-2.171,-2.1843,-2.1844,-2.2007,-2.2008,0,0,0,0,0,0,0,0,0,0,0,-2.1661,-2.1662,-2.1663,-2.1711,-2.1843,-2.1844,-2.2006,-2.1909,0,0,0,0,0,0,0,0,0,0,-2.1781,-2.1731,-2.1661,-2.1663,-2.1711,-2.1843,-2.1844,-2.1904,-2.1915,-2.1943,0,-2.1963,0,-2.1988,-2.2018,-2.2019,0,0,0,-2.1716,-2.1722,-2.1764,-2.1663,-2.1713,-2.1843,-2.1785,-2.191,-2.1922,-2.1956,-2.1965,-2.1972,-2.1991,-2.2019,-2.202,-2.2153,-2.2154,0,0,-2.1709,-2.1682,-2.1756,-2.1771,-2.1748,-2.1781,-2.1789,-2.1918,-2.1927,-2.1966,-2.1976,-2.1993,-2.202,-2.2021,-2.2153,-2.2153,0,0,0,-2.1684,-2.1676,-2.1715,-2.1764,-2.1789,-2.1784,-2.1794,-2.1921,-2.1936,-2.1978,-2.1995,-2.2021,-2.2023,-2.2153,-2.2153,-2.2143,0,0,0,-2.168,-2.1662,-2.1712,-2.1697,-2.1786,-2.1856,-2.1794,-2.1927,-2.1942,-2.1994,-2.2021,-2.2025,-2.2152,-2.2153,-2.2142,-2.2142,0,0,0,-2.1655,-2.1659,-2.1676,-2.1695,-2.1751,-2.1855,-2.1877,-2.1931,-2.1953,-2.2019,-2.2025,-2.2152,-2.2153,-2.2142,-2.2142,-2.2169,0,0,0,-2.1621,-2.1666,-2.1675,-2.1732,-2.175,-2.1846,-2.1876,-2.1951,-2.2006,-2.2022,-2.2152,-2.2153,-2.2142,-2.2141,-2.2168,-2.2186,-2.2191,0,0,-2.1663,-2.167,-2.1706,-2.1718,-2.1805,-2.1828,-2.1916,-2.1994,-2.2026,-2.211,-2.2113,-2.2142,-2.2142,-2.2169,-2.2229,-2.2233,0,0,0,-2.171,-2.1735,-2.1765,-2.1815,-2.1874,-2.1925,-2.1991,-2.2021,-2.2092,-2.2063,-2.2161,-2.2161,-2.2178,-2.2188,-2.2191,-2.2207,-2.2157,-2.2157,-2.2157,-2.1731,-2.1767,-2.1829,-2.1882,-2.1931,-2.1999,-2.2043,-2.2094,-2.2119,-2.2141,-2.2166,-2.2198,-2.2208,-2.2211,-2.2227,-2.2179,-2.2179,-2.2179,-2.2179,-2.1794,-2.1836,-2.1866,-2.1937,-2.1976,-2.2037,-2.2106,-2.2121,-2.2185,-2.2183,-2.22,-2.2193,-2.2214,-2.223,-2.2179,-2.2179,-2.2179,-2.2179,-2.2179,-2.1811,-2.1837,-2.187,-2.1946,-2.2002,-2.2056,-2.2114,-2.215,-2.2184,-2.22,-2.223,-2.223,-2.2234,-2.2212,-2.2212,-2.2212,-2.2212,-2.2212,-2.2213,-2.1815,-2.1853,-2.1896,-2.1962,-2.1999,-2.2052,-2.2121,-2.216,-2.2211,-2.2232,-2.2233,-2.2255,-2.2209,-2.2195,-2.2214,-2.2214,-2.2214,-2.2214,-2.2214,-2.1865,-2.1859,-2.1926,-2.1963,-2.2043,-2.2096,-2.214,-2.2214,-2.2251,-2.228,-2.2299,-2.2259,-2.2269,-2.2267,-2.2257,-2.2291,-2.2291,-2.2291,-2.2291,-2.1878,-2.1887,-2.1963,-2.2019,-2.2079,-2.2125,-2.2202,-2.2257,-2.2313,-2.2339,-2.234,-2.2329,-2.2325,-2.2338,-2.2335,-2.2325,-2.2376,-2.2376,-2.2376,-2.1911,-2.1926,-2.1984,-2.2036,-2.2101,-2.2157,-2.2231,-2.2297,-2.236,-2.238,-2.236,-2.2356,-2.234,-2.2332,-2.2351,-2.2344,-2.2328,0,0]},{"header":{"parameterUnit":"m.s-1","parameterCategory":1,"la1":30.2992,"la2":30.254,"lo1":-89.0895,"lo2":-89.0443,"dy":0.0025,"dx":0.0025,"nx":19,"ny":19,"refTime":"2026-03-09T21:00:00:Z","depth":0,"parameterNumber":3,"parameterNumberName":"V-component_of_WINDS"},"data":[0,0,0,3.7815,3.7817,3.7943,3.7943,3.8098,3.81,0,0,0,0,0,0,0,0,0,0,0,3.7771,3.7772,3.7815,3.7818,3.7943,3.7943,3.8098,3.81,0,0,0,0,0,0,0,0,0,0,0,3.7771,3.7772,3.7773,3.7818,3.7943,3.7943,3.8098,3.8006,0,0,0,0,0,0,0,0,0,0,3.7885,3.7838,3.7772,3.7773,3.7819,3.7943,3.7944,3.8001,3.8012,3.8038,0,3.8058,0,3.8081,3.8109,3.811,0,0,0,3.7823,3.783,3.7869,3.7773,3.782,3.7942,3.7888,3.8007,3.8019,3.8052,3.806,3.8066,3.8084,3.811,3.8111,3.8245,3.8245,0,0,3.7816,3.7791,3.7861,3.7876,3.7853,3.7884,3.7892,3.8014,3.8023,3.8061,3.807,3.8086,3.8111,3.8112,3.8245,3.8245,0,0,0,3.7792,3.7786,3.7823,3.787,3.7892,3.7887,3.7896,3.8018,3.8031,3.8072,3.8088,3.8112,3.8114,3.8244,3.8245,3.824,0,0,0,3.7788,3.7772,3.7819,3.7805,3.789,3.7956,3.7897,3.8023,3.8038,3.8087,3.8112,3.8115,3.8244,3.8244,3.8239,3.8242,0,0,0,3.7766,3.777,3.7786,3.7804,3.7857,3.7954,3.7976,3.8027,3.8047,3.811,3.8116,3.8243,3.8244,3.8238,3.8241,3.8271,0,0,0,3.7734,3.7779,3.7785,3.7842,3.7855,3.795,3.7975,3.8047,3.81,3.8113,3.8244,3.8245,3.8238,3.824,3.827,3.8293,3.8299,0,0,3.7777,3.7783,3.7819,3.7828,3.7914,3.7932,3.802,3.8093,3.8122,3.8203,3.8207,3.8239,3.8241,3.8271,3.8343,3.8348,0,0,0,3.7824,3.7849,3.7878,3.7927,3.7983,3.8033,3.8094,3.8122,3.8192,3.8158,3.8259,3.826,3.8279,3.8291,3.8296,3.8315,3.8249,3.8249,3.8249,3.7849,3.7884,3.7946,3.7997,3.8045,3.8109,3.8153,3.8201,3.8222,3.8246,3.827,3.831,3.8323,3.8326,3.8345,3.8284,3.8284,3.8284,3.8284,3.7916,3.7958,3.7987,3.8057,3.8096,3.8156,3.8222,3.8236,3.83,3.8294,3.8312,3.8303,3.833,3.8349,3.8284,3.8284,3.8284,3.8284,3.8284,3.7937,3.7964,3.7996,3.8073,3.8129,3.818,3.824,3.8273,3.8305,3.8323,3.8354,3.8354,3.836,3.8335,3.8335,3.8335,3.8335,3.8336,3.8336,3.7946,3.7983,3.8029,3.8094,3.8132,3.8185,3.8253,3.8292,3.8344,3.8363,3.8364,3.8385,3.8326,3.8311,3.8338,3.8338,3.8337,3.8337,3.8337,3.8002,3.7995,3.8066,3.8103,3.8185,3.824,3.8281,3.8359,3.8396,3.8425,3.8443,3.8394,3.8403,3.84,3.8388,3.8434,3.8434,3.8434,3.8434,3.8021,3.8029,3.811,3.8168,3.823,3.8275,3.8358,3.8413,3.8469,3.8495,3.8493,3.848,3.8476,3.8488,3.8483,3.8473,3.8538,3.8538,3.8539,3.8059,3.8074,3.8137,3.8189,3.8257,3.8314,3.8395,3.8464,3.8526,3.8544,3.8517,3.8513,3.8492,3.8483,3.8499,3.8491,3.8472,0,0]}]]